User: anonymous
Location: Unspecified
(0.0000°N, 0.0000°E)
Time: 13:48:32
(UTC+02:00)
Language:

IUS-9 SRM-1 - Orbit

View from above orbital plane
View from above orbital plane
View from above satellite
View from above satellite

Ground track
Ground track

The orbit data is extracted from the following two-line orbital elements,

1 19884U 89021C   14272.70171991  .00017174  00000-0  18722-2 0  1210
2 19884 026.4693 046.7700 6062699 106.5299 003.4734 03.97687280293696
Epoch (UTC): 29 September 2014 16:50:28
Eccentricity: 0.6062699
inclination: 26.4693°
perigee height: 247 km
apogee height: 20652 km
right ascension of ascending node: 46.7700°
argument of perigee: 106.5299°
revolutions per day: 3.97687280
mean anomaly at epoch: 3.4734°
orbit number at epoch: 29369

The dashed part of the orbit path shows where the satellite is in the earth's shadow,  

DLR